Waarnemingen

Advertentie
Mijn weer
Kuggören, Zweden (2355): temperatuur & dauwpunt: 16.05.2019 03:00:00 - 22.05.2019 03:00:00 (CEST)Kuggören, Zweden (2355): windsnelheid & windstoten: 16.05.2019 03:00:00 - 22.05.2019 03:00:00 (CEST)Kuggören, Zweden (2355): windrichting: 16.05.2019 03:00:00 - 22.05.2019 03:00:00 (CEST)Kuggören, Zweden (2355): luchtdruk: 16.05.2019 03:00:00 - 22.05.2019 03:00:00 (CEST)Kuggören, Zweden (2355): zicht: 16.05.2019 03:00:00 - 22.05.2019 03:00:00 (CEST)Kuggören, Zweden (2355): neerslag: 16.05.2019 03:00:00 - 22.05.2019 03:00:00 (CEST)
Datum & Tijd tt [°C] td [°C] ff [km/u] ff [kn] fx [km/u] fx [kn] dd ppp [hPa] vv [km] rr [mm]
22.05.2019 03:00:00 - - - - - - - - - -
22.05.2019 02:00:00 9,8 8,4 22 12 29 16 NNW 1013,7 35 0,0
22.05.2019 01:00:00 9,7 8,5 18 10 25 13 NNW 1014,0 28 0,0
22.05.2019 00:00:00 9,6 8,4 19 10 27 14 NNW 1014,2 29 0,0
21.05.2019 23:00:00 9,7 8,5 21 11 28 15 NNW 1014,0 21 0,0
21.05.2019 22:00:00 9,6 8,7 22 12 27 14 NNW 1014,3 16 0,0
21.05.2019 21:00:00 9,7 8,5 19 10 24 13 NNW 1014,0 19 0,0
21.05.2019 20:00:00 10,1 8,5 16 9 22 12 NNW 1013,7 23 0,0
21.05.2019 19:00:00 10,7 8,5 16 9 22 12 NNW 1013,4 34 0,0
21.05.2019 18:00:00 10,5 8,1 18 10 22 12 NNW 1013,4 48 0,0
21.05.2019 17:00:00 11,6 8,1 12 7 20 11 NW 1013,8 38 0,0
21.05.2019 16:00:00 10,3 7,9 16 9 22 12 NW 1014,1 26 0,0
21.05.2019 15:00:00 11,6 8,6 16 8 20 11 NNW 1014,3 30 0,0
21.05.2019 14:00:00 11,4 8,6 16 9 24 13 NW 1014,4 23 0,0
21.05.2019 13:00:00 11,9 8,9 19 10 23 13 NNW 1014,2 28 0,0
21.05.2019 12:00:00 11,3 9,0 16 9 21 12 NNW 1014,6 31 0,0
21.05.2019 11:00:00 11,0 8,9 18 10 21 11 NNW 1014,4 25 0,0
21.05.2019 10:00:00 11,8 9,2 14 8 21 12 NNW 1014,3 22 0,0
21.05.2019 09:00:00 11,2 9,3 16 9 24 13 NNW 1013,9 15 0,0
21.05.2019 08:00:00 11,3 9,6 18 10 22 12 NNW 1013,4 20 0,0
21.05.2019 07:00:00 10,6 9,4 16 9 21 11 NNW 1013,6 17 0,0
21.05.2019 06:00:00 9,8 8,9 15 8 18 10 NW 1013,2 15 0,0
21.05.2019 05:00:00 9,1 8,5 9 5 13 7 NW 1013,3 10 0,0
21.05.2019 04:00:00 8,7 8,1 10 6 13 7 NW 1013,1 9 0,0
21.05.2019 03:00:00 8,9 8,0 3 2 14 8 NW 1013,5 9 0,0
21.05.2019 02:00:00 9,5 8,7 10 5 13 7 NNW 1013,3 12 0,0
21.05.2019 01:00:00 9,5 8,6 5 3 14 8 NW 1013,3 12 0,0
21.05.2019 00:00:00 9,9 9,0 11 6 15 8 NNW 1013,2 19 0,0
20.05.2019 23:00:00 10,1 8,9 8 4 10 6 NW 1013,5 26 0,0
20.05.2019 22:00:00 10,4 9,0 7 4 16 8 NNW 1013,4 29 0,0
20.05.2019 21:00:00 11,0 9,3 8 4 12 6 NNW 1012,9 35 0,0
20.05.2019 20:00:00 12,5 9,3 4 2 17 9 NW 1013,2 36 0,0
20.05.2019 19:00:00 11,8 9,4 5 3 8 4 NNW 1013,2 28 0,0
20.05.2019 18:00:00 11,7 9,4 4 2 8 4 N 1013,3 26 0,0
20.05.2019 17:00:00 12,3 9,5 3 2 8 4 NNO 1013,5 37 0,0
20.05.2019 16:00:00 11,7 8,0 5 3 11 6 ZO 1013,9 47 0,0
20.05.2019 15:00:00 11,7 6,8 4 2 11 6 N 1013,9 49 0,0
20.05.2019 14:00:00 12,4 6,9 7 4 14 7 NO 1014,2 37 0,0
20.05.2019 13:00:00 12,2 6,7 6 3 13 7 NNO 1014,2 25 0,0
20.05.2019 12:00:00 12,3 6,6 11 6 20 11 NW 1014,2 40 0,0
20.05.2019 11:00:00 12,3 6,6 13 7 18 10 NW 1014,4 26 0,0
20.05.2019 10:00:00 10,9 6,4 16 9 19 10 NNW 1014,5 35 0,0
20.05.2019 09:00:00 10,3 6,3 11 6 17 9 NW 1014,5 30 0,0
20.05.2019 08:00:00 9,7 6,2 13 7 18 10 NNW 1014,5 40 0,0
20.05.2019 07:00:00 8,4 7,0 11 6 14 8 NNW 1014,6 46 0,0
20.05.2019 06:00:00 8,6 6,2 8 4 14 8 NNW 1014,7 38 0,0
20.05.2019 05:00:00 8,1 5,9 11 6 14 8 NW 1014,8 50 0,0
20.05.2019 04:00:00 7,7 6,0 6 3 11 6 NW 1015,1 50 0,0
20.05.2019 03:00:00 6,1 5,2 0 0 6 3 N 1015,1 40 0,0
20.05.2019 02:00:00 6,3 5,1 0 0 7 4 N 1015,1 49 0,0
20.05.2019 01:00:00 7,0 5,5 3 2 12 6 NW 1015,1 50 0,0
20.05.2019 00:00:00 6,8 5,4 6 3 8 4 NW 1015,1 50 0,0
19.05.2019 23:00:00 7,6 5,7 3 2 5 3 Z 1015,3 50 0,0
19.05.2019 22:00:00 8,3 5,6 0 0 5 3 N 1015,0 50 0,0
19.05.2019 21:00:00 8,7 6,0 5 3 8 4 NNO 1014,7 43 0,0
19.05.2019 20:00:00 9,2 6,1 6 4 11 6 NNW 1014,5 43 0,0
19.05.2019 19:00:00 10,2 6,0 7 4 16 9 NNW 1014,6 50 0,0
19.05.2019 18:00:00 9,4 6,5 10 6 17 9 NNW 1014,8 50 0,0
19.05.2019 17:00:00 9,4 7,0 11 6 14 8 NNW 1015,0 39 0,0
19.05.2019 16:00:00 9,9 6,8 5 3 9 5 NNW 1015,4 38 0,0
19.05.2019 15:00:00 9,4 7,2 6 4 17 9 NNO 1016,0 26 0,0
19.05.2019 14:00:00 9,3 7,2 15 8 21 11 NNW 1015,4 43 0,0
19.05.2019 13:00:00 8,4 7,2 14 7 18 10 NNO 1015,4 30 0,4
19.05.2019 12:00:00 8,2 7,1 16 9 25 13 NNW 1015,6 16 0,5
19.05.2019 11:00:00 8,2 7,3 16 8 21 11 NNW 1015,9 14 1,2
19.05.2019 10:00:00 8,3 6,9 9 5 22 12 NNW 1016,1 27 0,0
19.05.2019 09:00:00 8,5 6,3 19 10 23 13 NNW 1015,7 50 0,0
19.05.2019 08:00:00 8,8 5,7 13 7 27 14 NNW 1016,0 42 0,0
19.05.2019 07:00:00 9,0 5,7 16 8 24 13 NNW 1016,3 41 0,0
19.05.2019 06:00:00 8,7 5,8 14 8 22 12 NNW 1016,5 50 0,0
19.05.2019 05:00:00 8,2 5,5 16 8 23 12 NNW 1016,5 50 0,0
19.05.2019 04:00:00 8,6 5,2 15 8 22 12 NNW 1016,8 50 0,0
19.05.2019 03:00:00 8,2 5,5 14 8 21 11 NW 1017,1 50 0,0
19.05.2019 02:00:00 8,1 5,7 14 8 18 10 NW 1017,5 50 0,0
19.05.2019 01:00:00 8,2 6,0 14 8 18 10 NNW 1017,9 50 0,0
19.05.2019 00:00:00 7,9 6,2 8 5 13 7 NW 1018,5 50 0,0
18.05.2019 23:00:00 8,4 6,2 9 5 14 8 NW 1018,7 50 0,0
18.05.2019 22:00:00 8,9 6,0 9 5 14 8 NNW 1019,0 39 0,0
18.05.2019 21:00:00 8,8 6,4 12 7 17 9 NW 1018,9 50 0,0
18.05.2019 20:00:00 9,2 6,5 11 6 18 10 NW 1019,1 50 0,0
18.05.2019 19:00:00 9,2 6,5 16 8 18 10 NW 1019,3 50 0,0
18.05.2019 18:00:00 9,6 6,5 15 8 19 10 NNW 1019,8 50 0,0
18.05.2019 17:00:00 9,4 6,3 16 8 19 10 NNW 1020,2 44 0,0
18.05.2019 16:00:00 9,7 6,4 15 8 18 10 NNW 1020,9 50 0,0
18.05.2019 15:00:00 9,6 6,3 12 7 17 9 NNW 1021,3 41 0,0
18.05.2019 14:00:00 10,3 6,3 10 5 22 12 NNW 1021,7 35 0,0
18.05.2019 13:00:00 9,0 6,1 18 10 25 13 NNW 1021,8 37 0,0
18.05.2019 12:00:00 9,2 6,1 19 11 24 13 NNW 1022,3 50 0,0
18.05.2019 11:00:00 9,2 6,1 19 10 23 12 NNW 1022,7 32 0,0
18.05.2019 10:00:00 9,2 6,1 18 10 23 12 NNW 1022,6 43 0,0
18.05.2019 09:00:00 8,8 5,9 16 8 22 12 NNW 1022,6 48 0,0
18.05.2019 08:00:00 8,6 5,5 15 8 24 13 NNW 1022,7 46 0,0
18.05.2019 07:00:00 8,4 5,2 16 9 27 14 NNW 1022,8 50 0,0
18.05.2019 06:00:00 8,0 4,9 19 10 26 14 NNW 1022,9 50 0,0
18.05.2019 05:00:00 7,5 4,5 18 10 23 12 NNW 1023,0 50 0,0
18.05.2019 04:00:00 6,8 3,2 14 8 20 11 NW 1023,5 50 0,0
18.05.2019 03:00:00 6,8 3,2 11 6 18 10 NW 1024,0 50 0,0
18.05.2019 02:00:00 7,4 4,4 14 8 19 11 NW 1024,2 50 0,0
18.05.2019 01:00:00 7,2 4,3 11 6 14 8 NW 1024,3 50 0,0
18.05.2019 00:00:00 6,0 2,6 7 4 9 5 NNW 1024,5 50 0,0
17.05.2019 23:00:00 7,5 2,2 7 4 9 5 NNW 1024,5 50 0,0
17.05.2019 22:00:00 9,0 3,4 3 2 9 5 N 1024,7 50 0,0
17.05.2019 21:00:00 10,1 2,9 4 2 11 6 NNO 1024,8 38 0,0
17.05.2019 20:00:00 10,4 4,3 9 5 11 6 NO 1024,9 41 0,0
17.05.2019 19:00:00 10,4 5,2 5 3 8 4 ONO 1025,1 44 0,0
17.05.2019 18:00:00 10,6 6,0 5 3 10 5 NNO 1025,8 50 0,0
17.05.2019 17:00:00 9,9 6,1 5 3 9 5 NO 1026,2 42 0,0
17.05.2019 16:00:00 10,2 6,2 5 3 9 5 ONO 1026,8 47 0,0
17.05.2019 15:00:00 10,3 5,7 5 3 10 5 OZO 1027,2 33 0,0
17.05.2019 14:00:00 10,0 4,8 7 4 11 6 OZO 1027,4 46 0,0
17.05.2019 13:00:00 10,7 2,8 6 3 11 6 ZZO 1027,5 42 0,0
17.05.2019 12:00:00 11,1 3,6 6 3 12 6 ZO 1027,5 21 0,0
17.05.2019 11:00:00 10,7 4,2 12 7 16 9 Z 1028,0 37 0,0
17.05.2019 10:00:00 11,7 3,2 10 5 20 11 Z 1028,3 45 0,0
17.05.2019 09:00:00 9,9 1,8 16 9 21 12 Z 1028,6 48 0,0
17.05.2019 08:00:00 8,8 3,6 12 7 20 11 Z 1028,4 50 0,0
17.05.2019 07:00:00 8,3 3,5 16 8 20 11 Z 1028,3 50 0,0
17.05.2019 06:00:00 7,1 4,7 15 8 18 10 Z 1028,4 50 0,0
17.05.2019 05:00:00 6,0 4,0 5 3 11 6 ZZO 1028,1 50 0,0
17.05.2019 04:00:00 5,6 3,4 0 0 2 1 N 1028,0 50 0,0
17.05.2019 03:00:00 5,5 2,8 0 0 3 2 N 1028,3 50 0,0
17.05.2019 02:00:00 6,3 3,3 0 0 6 3 N 1028,3 50 0,0
17.05.2019 01:00:00 7,1 4,4 6 3 8 4 Z 1028,1 50 0,0
17.05.2019 00:00:00 7,6 3,8 2 1 9 5 Z 1028,2 50 0,0
16.05.2019 23:00:00 9,2 4,2 5 3 12 7 Z 1028,1 50 0,0
16.05.2019 22:00:00 10,1 4,2 9 5 14 8 ZZW 1028,0 50 0,0
16.05.2019 21:00:00 9,0 4,6 10 5 19 10 Z 1027,9 50 0,0
16.05.2019 20:00:00 10,6 4,7 14 7 25 13 Z 1027,8 50 0,0
16.05.2019 19:00:00 11,2 4,4 19 10 29 15 Z 1027,8 50 0,0
16.05.2019 18:00:00 11,3 4,5 22 12 29 16 Z 1028,2 42 0,0
16.05.2019 17:00:00 10,3 5,7 21 11 28 15 Z 1028,8 50 0,0
16.05.2019 16:00:00 10,7 5,5 16 9 26 14 Z 1029,2 50 0,0
16.05.2019 15:00:00 10,6 5,6 18 10 23 12 Z 1029,6 46 0,0
16.05.2019 14:00:00 10,5 5,3 17 9 22 12 Z 1030,2 36 0,0
16.05.2019 13:00:00 9,9 5,3 18 10 22 12 Z 1030,5 48 0,0
16.05.2019 12:00:00 11,0 5,9 9 5 12 7 ZZO 1030,8 39 0,0
16.05.2019 11:00:00 12,2 4,9 5 3 11 6 O 1031,1 50 0,0
16.05.2019 10:00:00 11,8 5,0 11 6 13 7 NO 1031,1 44 0,0
16.05.2019 09:00:00 11,9 5,1 10 6 16 9 NNW 1031,1 45 0,0
16.05.2019 08:00:00 9,7 5,1 12 7 15 8 NNW 1030,9 50 0,0
16.05.2019 07:00:00 9,5 4,7 9 5 14 7 NW 1030,8 50 0,0
16.05.2019 06:00:00 10,4 4,5 10 5 14 8 NW 1030,9 50 0,0
16.05.2019 05:00:00 9,3 3,7 8 4 13 7 WNW 1030,7 50 0,0
16.05.2019 04:00:00 9,7 3,0 9 5 21 12 W 1030,6 50 0,0
16.05.2019 03:00:00 10,1 2,7 14 8 22 12 W 1030,7 50 0,0

tt = temperatuur
td = dauwpunt
ff = windsnelheid
fx = windstoten
dd = windrichting
ppp = luchtdruk
vv = zicht
rr = neerslag

Weerstations in de omgeving